OpenBCM V1.07b12 (Linux)

Packet Radio Mailbox

SR8BBS

[OBCM_Lublin]

 Login: GUEST





  
I0OJJ  > KEPS     17.06.25 23:15z 343 Lines 16342 Bytes #1 (0) @ AMSAT
BID : ORB25168.1
Subj: 2Line Orbital Elements 25168.AMSAT
Path: SR8BBS<SR1BSZ<EA2RCF<I0OJJ
Sent: 250617/0025z @:I0OJJ.ITA.EU [Rome] obcm1.08-10-g596e
From: I0OJJ @ I0OJJ.ITA.EU (Gustavo)
To:   KEPS @ AMSAT
X-Info: This message was generated automatically


QST de W1STR

AMSAT Orbital Elements for Amateur Satellites in TLE Format
From Orbital Analysis Office
New England Sci-Tech STEM Education Center
Natick, MA June 17, 2025
To all radio amateurs


These element sets describe the orbits of various satellites 
in use by the amateur radio community. For details see:
www.amsat.org/keplerian-elements-formats/

A daily update of element sets is available at:
www.amsat.org/tle/daily-bulletin.txt
or without bulletin text:
www.amsat.org/tle/dailytle.txt


AO-07
1 07530U 74089B   25167.45062174 -.00000047  00000-0 -20853-5 0  9999
2 07530 101.9926 171.7877 0012607 108.5276  51.8444 12.53689644314684
UO-11
1 14781U 84021B   25167.58805452  .00001267  00000-0  13911-3 0  9998
2 14781  97.7544 133.8176 0006793 323.4125  36.6628 14.89408126202685
AO-27
1 22825U 93061C   25167.42064809  .00000101  00000-0  55503-4 0  9996
2 22825  98.7362 229.0102 0009576  93.2082 267.0196 14.30801834654696
FO-29
1 24278U 96046B   25167.40613985 -.00000028  00000-0  98827-5 0  9995
2 24278  98.5752  60.3994 0349318 325.0894  32.7777 13.53249351423694
NOAA-15
1 25338U 98030A   25167.75314047  .00000211  00000-0  10428-3 0  9995
2 25338  98.5343 192.7115 0009784 345.4115  14.6782 14.26983632409423
GO-32
1 25397U 98043D   25166.94398788  .00000069  00000-0  50073-4 0  9990
2 25397  98.9703 146.1958 0001492 145.8009 214.3266 14.24316730399197
ISS
1 25544U 98067A   25167.81200506  .00009685  00000-0  17597-3 0  9993
2 25544  51.6369 308.9364 0001513 257.3580 102.7240 15.50239644515102
NO-44
1 26931U 01043C   25167.56155282  .00000155  00000-0  89143-4 0  9994
2 26931  67.0502 109.7887 0006103 276.3105  83.7302 14.31737982238266
SO-50
1 27607U 02058C   25167.43735081  .00001003  00000-0  14238-3 0  9994
2 27607  64.5510 179.3677 0057165 332.4959  27.3124 14.81640478210245
CO-55
1 27844U 03031E   25167.00360062  .00000294  00000-0  14689-3 0  9996
2 27844  98.6753 175.1940 0009951 161.7533 198.4005 14.24001462139556
CO-57
1 27848U 03031J   25167.44708767  .00000246  00000-0  12785-3 0  9998
2 27848  98.6780 175.6321 0009521 177.3915 182.7315 14.23335667139341
RS-22
1 27939U 03042A   25167.88324138  .00000955  00000-0  15918-3 0  9993
2 27939  98.3286 337.5112 0011177 353.6292 116.5941 14.72371568161905
CO-58
1 28895U 05043F   25167.66033194  .00001363  00000-0  23023-3 0  9993
2 28895  98.2508 312.0990 0013207 285.7161  74.2588 14.71036680 48218
CO-65
1 32785U 08021C   25167.58879912  .00003857  00000-0  27975-3 0  9992
2 32785  97.7864 138.8035 0009692 178.1881 181.9382 15.04497745930130
CO-66
1 32791U 08021J   25166.89677818  .00010020  00000-0  48388-3 0  9994
2 32791  97.7276 147.0787 0005251 129.1821 230.9880 15.18850785931453
RS-30
1 32953U 08025A   25167.80607850  .00000014  00000-0  26647-4 0  9996
2 32953  82.5025 222.6839 0019771  33.8892 326.3446 12.43165284774435
NOAA-19
1 33591U 09005A   25167.84932217  .00000182  00000-0  12091-3 0  9999
2 33591  98.9969 232.5944 0013353 347.8160  12.2687 14.13377896843130
SRMSAT
1 37841U 11058D   25167.16632701  .00000411  00000-0  79220-4 0  9995
2 37841  19.9710 114.6877 0011946 136.9898 258.6597 14.11438372706044
ZACUBE-1
1 39417U 13066B   25167.60609867  .00004167  00000-0  36268-3 0  9999
2 39417  97.7801 124.5814 0044774  30.3253 330.0545 14.96714111625968
Delfi-N3xt
1 39428U 13066N   25167.21668692  .00004851  00000-0  49497-3 0  9997
2 39428  97.8347  84.7927 0084236 339.9487  19.8426 14.88484266620064
GOMX-1
1 39430U 13066Q   25167.84923573  .00001757  00000-0  27834-3 0  9994
2 39430  97.6829  26.0678 0132631 168.5479 191.8797 14.67663402616472
LO-74
1 39440U 13066AA  25167.32621389  .00003140  00000-0  31994-3 0  9998
2 39440  97.8501 111.8397 0062584 156.3861 204.0252 14.89973670623647
AO-73
1 39444U 13066AE  25167.34039743  .00005029  00000-0  37692-3 0  9990
2 39444  97.7838 129.2818 0042340   7.5324 352.6527 15.02429953624601
DTUSAT-2
1 40030U 14033W   25167.58864458  .00005355  00000-0  34883-3 0  9994
2 40030  98.0562 139.7460 0010414  45.0560 315.1510 15.08351758597458
EO-80
1 40032U 14033Y   25167.34319831  .00005355  00000-0  34825-3 0  9996
2 40032  98.0436 139.1343 0008096 348.8706  11.2340 15.08429830597398
LILACSAT-2
1 40908U 15049K   25167.89174912  .00009769  00000-0  25409-3 0  9996
2 40908  97.5052 188.4145 0010841 128.4222 231.7998 15.39072230539353
IO-86
1 40931U 15052B   25151.18580175  .00001241  00000-0  78118-4 0  9996
2 40931   6.0006  24.0987 0012733 338.8432  21.1169 14.78805930523047
Horyu-4
1 41340U 16012D   25167.10119943  .00018947  00000-0  50082-3 0  9998
2 41340  30.9965  88.0742 0005663 129.2007 230.9142 15.37154182513799
Lapan A3
1 41603U 16040E   25167.82613120  .00002976  00000-0  10516-3 0  9999
2 41603  97.1367 172.1492 0009321 238.2900 121.7434 15.29905582498890
CAS-2T
1 41847U 16066G   25167.47539897  .00001647  00000-0  24149-3 0  9997
2 41847  98.4192 241.8783 0346704 157.4786 204.2050 14.43503811452019
CAS-4B
1 42759U 17034B   25167.74888161  .00060693  00000-0  61131-3 0  9995
2 42759  43.0065 279.1257 0021098 337.3419  22.6513 15.64267264443722
CAS-4A
1 42761U 17034D   25167.71221400  .00063598  00000-0  60585-3 0  9991
2 42761  43.0104 276.4207 0022270 341.5965  18.4093 15.65610275443743
TechnoSat
1 42829U 17042E   25167.70677090  .00001763  00000-0  13956-3 0  9990
2 42829  97.3882 336.0808 0014134 248.5979 111.3739 15.01744908431797
AO-91
1 43017U 17073E   25167.37611881  .00006329  00000-0  32332-3 0  9995
2 43017  97.5253  37.9761 0173393 143.0462 218.2859 15.04825637410233
S-Net D
1 43186U 18014G   25167.18357001  .00003102  00000-0  18492-3 0  9995
2 43186  97.5619  70.0227 0008506 191.0897 169.0147 15.11888919403379
S-Net B
1 43187U 18014H   25167.45379251  .00003520  00000-0  20936-3 0  9997
2 43187  97.5626  70.2623 0009374 186.2086 173.9030 15.11871306403412
S-Net A
1 43188U 18014J   25167.18393124  .00003169  00000-0  18878-3 0  9994
2 43188  97.5634  70.1463 0009215 187.7539 172.3550 15.11893238403379
S-Net C
1 43189U 18014K   25167.45620637  .00003484  00000-0  20723-3 0  9999
2 43189  97.5651  70.4311 0010983 180.7246 179.3970 15.11867210401963
Ten-Koh
1 43677U 18084G   25167.46403082  .00001747  00000-0  14345-3 0  9995
2 43677  98.0867 339.9927 0005807 229.9237 130.1477 15.00605747361270
PO-101
1 43678U 18084H   25167.80096467  .00001201  00000-0  10616-3 0  9991
2 43678  98.1036 344.2017 0007307 265.4157  94.6230 14.98362641361463
QO-100
1 43700U 18090A   25167.50982175  .00000155  00000-0  00000-0 0  9991
2 43700   0.0198   6.3011 0002271 117.1804 350.8657  1.00269772 24014
MinXSS-2
1 43758U 18099A   25167.87188598  .00013459  00000-0  52556-3 0  9997
2 43758  97.5008 233.9310 0013267 128.0028 232.2410 15.25937470358080
AO-95
1 43770U 18099N   25167.11175821  .00007831  00000-0  39511-3 0  9996
2 43770  97.4901 225.1253 0010844 181.1226 178.9985 15.17345020357540
RANGE-A
1 43773U 18099R   25167.09859779  .00003547  00000-0  22704-3 0  9993
2 43773  97.4466 215.3115 0011881 162.2719 197.8927 15.09144946357200
MOVE-II
1 43780U 18099Y   25167.18594554  .00287496  00000-0  14665-2 0  9991
2 43780  97.4634 243.3430 0005477 201.2811 158.8229 15.80594805358842
SNUSat 2
1 43782U 18099AA  25167.14679922  .00005663  00000-0  30862-3 0  9994
2 43782  97.4586 221.8579 0013558 127.5559 232.6907 15.14709409357492
SnugLite
1 43784U 18099AC  25167.40433378  .00006261  00000-0  31388-3 0  9997
2 43784  97.4400 221.6843 0005106 122.1466 238.0264 15.17686518357673
ITASat 1
1 43786U 18099AE  25167.42408005  .00004873  00000-0  27890-3 0  9990
2 43786  97.4555 221.6195 0014597 176.3404 183.7937 15.13012942357496
EAGLET 1
1 43790U 18099AJ  25167.11488737  .00003274  00000-0  21009-3 0  9991
2 43790  97.4749 221.2532 0012662 160.7102 199.4609 15.09105453357057
ESEO
1 43792U 18099AL  25167.39393834  .00001528  00000-0  11873-3 0  9994
2 43792  97.4490 214.6974 0014561 133.9868 226.2560 15.02649164356845
CSIM
1 43793U 18099AM  25167.18188231  .00065405  00000-0  39483-3 0  9996
2 43793  97.4780 245.5894 0005411 172.8577 187.2767 15.77443233358685
JO-97
1 43803U 18099AX  25167.42687955  .00008155  00000-0  37060-3 0  9990
2 43803  97.4651 226.4420 0009141 118.3735 241.8423 15.20982266357814
Suomi 100
1 43804U 18099AY  25167.12287912  .00008048  00000-0  39226-3 0  9994
2 43804  97.4714 225.4188 0013912 122.9046 237.3529 15.18513865357697
ISAT
1 43879U 18111D   25167.49265170  .00014916  00000-0  51288-3 0  9996
2 43879  97.5951  82.0389 0009326 160.1431 200.0174 15.30149762354751
UWE-4
1 43880U 18111E   25166.70425401  .00010344  00000-0  40349-3 0  9993
2 43880  97.5898  79.6693 0011819 179.3074 180.8182 15.26065692354565
Sparrow
1 43881U 18111F   25167.20766852  .00013672  00000-0  45309-3 0  9996
2 43881  97.6100  84.6508 0006057 195.9039 164.2013 15.31390151354800
Prox-1
1 44339U 19036A   25167.89943200  .00008535  00000-0  10663-2 0  9997
2 44339  23.9989  13.7126 0006826 155.4793 204.6030 14.80101425319195
SONATE
1 44400U 19038Q   25167.34454156  .00366381  58848-4  73016-3 0  9990
2 44400  97.6802 195.3460 0008479 194.5423 165.5611 15.99793405330654
Taurus 1
1 44530U 19059C   25167.82520823  .00004713  00000-0  87025-3 0  9991
2 44530  98.6083 307.5622 0009062  22.3667 337.7928 14.65930067305008
Duchifat 3
1 44854U 19089C   25167.72457365  .00038147  00000-0  72889-3 0  9992
2 44854  36.9434 309.7515 0004156   3.7512 356.3275 15.47158542304055
TO-108
1 44881U 19093C   25167.83412421  .00000835  00000-0  10249-3 0  9998
2 44881  97.7924 243.3321 0013227 202.1078 157.9568 14.85615555297158
